sat.trackr.live / text

‹ back to catalog

STARLINK-2153

NORAD 48009 · 2021-024AJ

PAYLOAD ACTIVE UNKNOWN

§ Identity

Operator
Country
US
Launch date
2021-03-24
Launch site
AFETR
Launch vehicle
Mass (kg)
RCS (m²)

Purposes: comms

External: N2YO · Heavens-Above · Gunter

§ Orbital elements

Epoch: 2026-05-25T04:16:15.538368Z

Period
94.01 min
Inclination
53.1605°
Eccentricity
0.0001127
Mean motion
15.31698929 rev/d
Perigee alt
470.0 km
Apogee alt
471.5 km
Semi-major
6,848.9 km
B*
6.4341e-5
RAAN
313.6590°
Arg perigee
76.4472°
Mean anomaly
283.6654°
Rev number
28,661

§ Raw data

STARLINK-21531 48009U 21024AJ  26145.17795762  .00001632  00000+0  64341-4 0  99952 48009  53.1605 313.6590 0001127  76.4472 283.6654 15.31698929286611

JSON: /api/v1/satellites/48009 · /tle

For live sub-satellite position, see the globe view (requires WebGL).

§ Visibility from observer

Set your observer location to see the next 7 days of passes ≥ 10°. The values pass through the URL so the page stays shareable.

No JS? Fill the form by hand. The geolocation button needs JavaScript.